| time (UTC) | temp C | wind direction | speed KPH | gust KPH | rain 1hr cm | rain 24hr cm | rain mn cm | humidity % | barometer mb |
| 20260505070830 | 15 | 133 | 4.8 | 14.5 | 0.00 | 0.00 | 0.00 | 76 | 1010.7 |
| 20260505070104 | 15 | 132 | 6.4 | 17.7 | 0.00 | 0.00 | 0.00 | 76 | 1010.8 |
| 20260505065558 | 15 | 134 | 6.4 | 19.3 | 0.00 | 0.00 | 0.00 | 76 | 1010.8 |
| 20260505065052 | 15 | 166 | 4.8 | 19.3 | 0.00 | 0.00 | 0.00 | 77 | 1010.9 |
| 20260505064551 | 15 | 140 | 3.2 | 11.3 | 0.00 | 0.00 | 0.00 | 77 | 1010.9 |
| 20260505064051 | 15 | 184 | 3.2 | 11.3 | 0.00 | 0.00 | 0.00 | 77 | 1010.8 |
| 20260505063554 | 15 | 169 | 4.8 | 12.9 | 0.00 | 0.00 | 0.00 | 77 | 1010.8 |
| 20260505063050 | 15 | 143 | 4.8 | 12.9 | 0.00 | 0.00 | 0.00 | 77 | 1010.9 |
| 20260505062549 | 15 | 173 | 3.2 | 9.7 | 0.00 | 0.00 | 0.00 | 76 | 1010.9 |
| 20260505062049 | 15 | 171 | 3.2 | 9.7 | 0.00 | 0.00 | 0.00 | 76 | 1010.8 |
| 20260505061549 | 14 | 139 | 3.2 | 9.7 | 0.00 | 0.00 | 0.00 | 77 | 1010.9 |
| 20260505061049 | 14 | 154 | 3.2 | 9.7 | 0.00 | 0.00 | 0.00 | 77 | 1010.8 |
| 20260505061034 | 14 | 170 | 3.2 | 8.0 | 0.00 | 0.00 | 0.00 | 77 | 1010.8 |
| 20260505060305 | 14 | 113 | 3.2 | 6.4 | 0.00 | 0.00 | 0.00 | 77 | 1010.9 |
| 20260505055549 | 13 | 150 | 3.2 | 8.0 | 0.00 | 0.00 | 0.00 | 78 | 1010.9 |
| 20260505055050 | 13 | 163 | 1.6 | 8.0 | 0.00 | 0.00 | 0.00 | 77 | 1010.9 |
| 20260505054549 | 13 | 122 | 1.6 | 6.4 | 0.00 | 0.00 | 0.00 | 77 | 1010.8 |
| 20260505054044 | 13 | 132 | 3.2 | 9.7 | 0.00 | 0.00 | 0.00 | 77 | 1010.8 |
| 20260505053544 | 13 | 138 | 3.2 | 12.9 | 0.00 | 0.00 | 0.00 | 77 | 1010.8 |
| 20260505053043 | 13 | 136 | 3.2 | 12.9 | 0.00 | 0.00 | 0.00 | 78 | 1010.9 |
| 20260505052545 | 12 | 169 | 3.2 | 6.4 | 0.00 | 0.00 | 0.00 | 78 | 1010.8 |
| 20260505052042 | 12 | 159 | 3.2 | 6.4 | 0.00 | 0.00 | 0.00 | 77 | 1011.0 |
| 20260505051541 | 12 | 108 | 3.2 | 11.3 | 0.00 | 0.00 | 0.00 | 77 | 1010.9 |
| 20260505051042 | 12 | 144 | 3.2 | 11.3 | 0.00 | 0.00 | 0.00 | 78 | 1010.9 |
| 20260505050541 | 12 | 149 | 1.6 | 6.4 | 0.00 | 0.00 | 0.00 | 78 | 1011.0 |
| 20260505041538 | 13 | 109 | 3.2 | 8.0 | 0.00 | 0.00 | 0.00 | 72 | 1010.8 |
| 20260505041039 | 13 | 103 | 3.2 | 6.4 | 0.00 | 0.00 | 0.00 | 70 | 1010.7 |
| 20260505040537 | 13 | 123 | 3.2 | 6.4 | 0.00 | 0.00 | 0.00 | 70 | 1010.7 |
| 20260505040038 | 13 | 133 | 3.2 | 6.4 | 0.00 | 0.00 | 0.00 | 70 | 1010.7 |
| 20260505035537 | 13 | 121 | 3.2 | 9.7 | 0.00 | 0.00 | 0.00 | 68 | 1010.6 |
| 20260505035301 | 14 | 94 | 4.8 | 9.7 | 0.00 | 0.00 | 0.00 | 67 | 1010.6 |
| 20260505034537 | 14 | 81 | 4.8 | 11.3 | 0.00 | 0.00 | 0.00 | 67 | 1010.7 |
| 20260505034038 | 15 | 86 | 6.4 | 12.9 | 0.00 | 0.00 | 0.00 | 66 | 1010.7 |
| 20260505033806 | 15 | 98 | 4.8 | 12.9 | 0.00 | 0.00 | 0.00 | 65 | 1010.7 |
| 20260505033039 | 15 | 71 | 4.8 | 16.1 | 0.00 | 0.00 | 0.00 | 65 | 1010.7 |
| 20260505032539 | 15 | 109 | 6.4 | 16.1 | 0.00 | 0.00 | 0.00 | 64 | 1010.7 |
| 20260505032039 | 15 | 123 | 4.8 | 12.9 | 0.00 | 0.00 | 0.00 | 64 | 1010.8 |
| 20260505031803 | 15 | 142 | 4.8 | 12.9 | 0.00 | 0.00 | 0.00 | 65 | 1010.8 |
| 20260505031040 | 14 | 123 | 4.8 | 12.9 | 0.00 | 0.00 | 0.00 | 65 | 1010.8 |
| 20260505030535 | 14 | 88 | 4.8 | 11.3 | 0.00 | 0.00 | 0.00 | 65 | 1010.8 |
| 20260505030028 | 14 | 93 | 4.8 | 9.7 | 0.00 | 0.00 | 0.00 | 66 | 1010.8 |
| 20260505025519 | 14 | 89 | 4.8 | 11.3 | 0.00 | 0.00 | 0.00 | 66 | 1010.7 |
| 20260505025233 | 14 | 87 | 4.8 | 11.3 | 0.00 | 0.00 | 0.00 | 66 | 1010.7 |
| 20260505024505 | 14 | 89 | 4.8 | 9.7 | 0.00 | 0.00 | 0.00 | 65 | 1010.8 |
| 20260505023954 | 14 | 92 | 4.8 | 9.7 | 0.00 | 0.00 | 0.00 | 64 | 1010.8 |
| 20260505023448 | 15 | 86 | 4.8 | 9.7 | 0.00 | 0.00 | 0.00 | 63 | 1010.7 |
| 20260505022943 | 15 | 84 | 4.8 | 9.7 | 0.00 | 0.00 | 0.00 | 62 | 1010.9 |
| 20260505022433 | 15 | 86 | 4.8 | 9.7 | 0.00 | 0.00 | 0.00 | 62 | 1010.8 |
| 20260505021927 | 15 | 92 | 4.8 | 9.7 | 0.00 | 0.00 | 0.00 | 61 | 1010.9 |
| 20260505021420 | 15 | 101 | 3.2 | 9.7 | 0.00 | 0.00 | 0.00 | 61 | 1011.0 |
| 20260505020911 | 15 | 121 | 3.2 | 9.7 | 0.00 | 0.00 | 0.00 | 61 | 1011.0 |
| 20260505020404 | 15 | 119 | 4.8 | 11.3 | 0.00 | 0.00 | 0.00 | 61 | 1011.0 |
| 20260505020124 | 15 | 122 | 3.2 | 11.3 | 0.00 | 0.00 | 0.00 | 60 | 1011.0 |
| 20260505015348 | 16 | 143 | 3.2 | 12.9 | 0.00 | 0.00 | 0.00 | 59 | 1011.1 |
| 20260505014842 | 16 | 107 | 4.8 | 12.9 | 0.00 | 0.00 | 0.00 | 59 | 1011.0 |
| 20260505014336 | 16 | 137 | 4.8 | 11.3 | 0.00 | 0.00 | 0.00 | 59 | 1011.0 |
| 20260505013826 | 15 | 156 | 3.2 | 11.3 | 0.00 | 0.00 | 0.00 | 59 | 1011.0 |
| 20260505013322 | 16 | 131 | 3.2 | 9.7 | 0.00 | 0.00 | 0.00 | 59 | 1010.8 |
| 20260505012814 | 16 | 112 | 4.8 | 12.9 | 0.00 | 0.00 | 0.00 | 59 | 1010.8 |
| 20260505012305 | 16 | 114 | 4.8 | 12.9 | 0.00 | 0.00 | 0.00 | 58 | 1010.7 |
| 20260505011759 | 16 | 118 | 6.4 | 14.5 | 0.00 | 0.00 | 0.00 | 57 | 1010.7 |
| 20260505011252 | 16 | 90 | 4.8 | 14.5 | 0.00 | 0.00 | 0.00 | 58 | 1010.7 |
| 20260505010743 | 16 | 135 | 3.2 | 12.9 | 0.00 | 0.00 | 0.00 | 57 | 1010.6 |
| 20260505010237 | 16 | 107 | 3.2 | 12.9 | 0.00 | 0.00 | 0.00 | 58 | 1010.6 |
| 20260505005949 | 16 | 112 | 4.8 | 12.9 | 0.00 | 0.00 | 0.00 | 57 | 1010.6 |
| 20260505005220 | 16 | 114 | 4.8 | 12.9 | 0.00 | 0.00 | 0.00 | 56 | 1010.5 |
| 20260505004715 | 17 | 101 | 3.2 | 11.3 | 0.00 | 0.00 | 0.00 | 55 | 1010.6 |
| 20260505004208 | 17 | 101 | 3.2 | 11.3 | 0.00 | 0.00 | 0.00 | 54 | 1010.5 |
| 20260505003658 | 17 | 126 | 4.8 | 11.3 | 0.00 | 0.00 | 0.00 | 53 | 1010.4 |
| 20260505003153 | 17 | 126 | 4.8 | 11.3 | 0.00 | 0.00 | 0.00 | 54 | 1010.5 |
| 20260505002904 | 17 | 134 | 4.8 | 11.3 | 0.00 | 0.00 | 0.00 | 53 | 1010.5 |
| 20260505002135 | 17 | 117 | 4.8 | 19.3 | 0.00 | 0.00 | 0.00 | 52 | 1010.3 |
| 20260505001628 | 18 | 142 | 4.8 | 19.3 | 0.00 | 0.00 | 0.00 | 51 | 1010.3 |
| 20260505001123 | 18 | 137 | 4.8 | 16.1 | 0.00 | 0.00 | 0.00 | 51 | 1010.3 |
| 20260505000610 | 18 | 167 | 4.8 | 16.1 | 0.00 | 0.00 | 0.00 | 50 | 1010.3 |
| 20260505000103 | 18 | 155 | 4.8 | 14.5 | 0.00 | 0.00 | 0.00 | 50 | 1010.4 |
| 20260504235754 | 18 | 117 | 4.8 | 14.5 | 0.00 | 0.00 | 0.00 | 48 | 1010.1 |
| 20260504235641 | 18 | 145 | 4.8 | 12.9 | 0.00 | 0.00 | 0.00 | 49 | 1010.3 |
| 20260504234542 | 19 | 134 | 6.4 | 14.5 | 0.00 | 0.00 | 0.00 | 48 | 1010.2 |
| 20260504234254 | 19 | 143 | 6.4 | 16.1 | 0.00 | 0.00 | 0.00 | 48 | 1010.2 |
| 20260504233532 | 19 | 141 | 6.4 | 16.1 | 0.00 | 0.00 | 0.00 | 47 | 1010.2 |
| 20260504233029 | 20 | 117 | 8.0 | 16.1 | 0.00 | 0.00 | 0.00 | 47 | 1010.3 |
| 20260504232529 | 20 | 117 | 8.0 | 20.9 | 0.00 | 0.00 | 0.00 | 46 | 1010.2 |
| 20260504232031 | 20 | 135 | 8.0 | 20.9 | 0.00 | 0.00 | 0.00 | 46 | 1010.3 |
| 20260504231528 | 20 | 119 | 8.0 | 16.1 | 0.00 | 0.00 | 0.00 | 46 | 1010.3 |
| 20260504231027 | 20 | 106 | 8.0 | 19.3 | 0.00 | 0.00 | 0.00 | 46 | 1010.2 |
| 20260504230528 | 20 | 128 | 6.4 | 19.3 | 0.00 | 0.00 | 0.00 | 45 | 1010.3 |
| 20260504230025 | 20 | 117 | 8.0 | 22.5 | 0.00 | 0.00 | 0.00 | 47 | 1010.2 |
| 20260504225526 | 20 | 121 | 9.7 | 22.5 | 0.00 | 0.00 | 0.00 | 45 | 1010.3 |
| 20260504225024 | 20 | 136 | 8.0 | 22.5 | 0.00 | 0.00 | 0.00 | 45 | 1010.3 |
| 20260504224523 | 20 | 126 | 9.7 | 22.5 | 0.00 | 0.00 | 0.00 | 46 | 1010.3 |
| 20260504224024 | 20 | 73 | 9.7 | 24.1 | 0.00 | 0.00 | 0.00 | 45 | 1010.3 |
| 20260504223523 | 20 | 128 | 9.7 | 24.1 | 0.00 | 0.00 | 0.00 | 45 | 1010.3 |
| 20260504223027 | 20 | 123 | 9.7 | 22.5 | 0.00 | 0.00 | 0.00 | 47 | 1010.3 |
| 20260504222526 | 20 | 131 | 11.3 | 30.6 | 0.00 | 0.00 | 0.00 | 45 | 1010.3 |
| 20260504222017 | 21 | 150 | 11.3 | 30.6 | 0.00 | 0.00 | 0.00 | 45 | 1010.3 |
| 20260504221511 | 21 | 60 | 11.3 | 25.7 | 0.00 | 0.00 | 0.00 | 45 | 1010.2 |
| 20260504221005 | 21 | 136 | 9.7 | 25.7 | 0.00 | 0.00 | 0.00 | 43 | 1010.3 |
| 20260504220454 | 21 | 179 | 6.4 | 24.1 | 0.00 | 0.00 | 0.00 | 45 | 1010.2 |
| 20260504220219 | 21 | 194 | 8.0 | 24.1 | 0.00 | 0.00 | 0.00 | 45 | 1010.2 |
| 20260504215450 | 21 | 111 | 9.7 | 25.7 | 0.00 | 0.00 | 0.00 | 45 | 1010.2 |
| 20260504214948 | 21 | 152 | 9.7 | 25.7 | 0.00 | 0.00 | 0.00 | 44 | 1010.3 |
| 20260504214448 | 21 | 140 | 11.3 | 29.0 | 0.00 | 0.00 | 0.00 | 45 | 1010.3 |
| 20260504213947 | 21 | 116 | 12.9 | 29.0 | 0.00 | 0.00 | 0.00 | 45 | 1010.3 |
| 20260504213446 | 21 | 138 | 11.3 | 24.1 | 0.00 | 0.00 | 0.00 | 44 | 1010.3 |
| 20260504212945 | 21 | 100 | 9.7 | 20.9 | 0.00 | 0.00 | 0.00 | 43 | 1010.3 |
| 20260504212445 | 21 | 105 | 12.9 | 29.0 | 0.00 | 0.00 | 0.00 | 45 | 1010.3 |
| 20260504211944 | 21 | 164 | 12.9 | 29.0 | 0.00 | 0.00 | 0.00 | 45 | 1010.3 |
| 20260504211711 | 21 | 144 | 11.3 | 29.0 | 0.00 | 0.00 | 0.00 | 45 | 1010.3 |
| 20260504210944 | 21 | 117 | 12.9 | 29.0 | 0.00 | 0.00 | 0.00 | 41 | 1010.4 |
| 20260504210446 | 21 | 76 | 12.9 | 29.0 | 0.00 | 0.00 | 0.00 | 42 | 1010.3 |
| 20260504210209 | 21 | 152 | 11.3 | 29.0 | 0.00 | 0.00 | 0.00 | 43 | 1010.3 |
| 20260504205441 | 21 | 194 | 9.7 | 29.0 | 0.00 | 0.00 | 0.00 | 45 | 1010.3 |
| 20260504204942 | 21 | 152 | 9.7 | 29.0 | 0.00 | 0.00 | 0.00 | 45 | 1010.3 |
| 20260504204704 | 21 | 130 | 14.5 | 29.0 | 0.00 | 0.00 | 0.00 | 45 | 1010.3 |
| 20260504204427 | 21 | 127 | 12.9 | 29.0 | 0.00 | 0.00 | 0.00 | 42 | 1010.2 |
| 20260504203441 | 21 | 109 | 9.7 | 25.7 | 0.00 | 0.00 | 0.00 | 46 | 1010.2 |
| 20260504202941 | 21 | 108 | 11.3 | 22.5 | 0.00 | 0.00 | 0.00 | 44 | 1010.3 |
| 20260504202442 | 21 | 117 | 11.3 | 22.5 | 0.00 | 0.00 | 0.00 | 47 | 1010.4 |
| 20260504201942 | 21 | 148 | 9.7 | 29.0 | 0.00 | 0.00 | 0.00 | 45 | 1010.4 |
| 20260504201442 | 21 | 136 | 11.3 | 29.0 | 0.00 | 0.00 | 0.00 | 44 | 1010.6 |
| 20260504201208 | 21 | 171 | 12.9 | 29.0 | 0.00 | 0.00 | 0.00 | 43 | 1010.7 |
| 20260504200442 | 21 | 142 | 9.7 | 25.7 | 0.00 | 0.00 | 0.00 | 44 | 1010.7 |
| 20260504195942 | 21 | 109 | 9.7 | 27.4 | 0.00 | 0.00 | 0.00 | 48 | 1010.8 |
| 20260504195442 | 21 | 155 | 11.3 | 27.4 | 0.00 | 0.00 | 0.00 | 44 | 1010.8 |
| 20260504194941 | 21 | 172 | 9.7 | 20.9 | 0.00 | 0.00 | 0.00 | 46 | 1010.9 |
| 20260504194706 | 21 | 167 | 11.3 | 25.7 | 0.00 | 0.00 | 0.00 | 47 | 1010.9 |
| 20260504193942 | 21 | 124 | 12.9 | 25.7 | 0.00 | 0.00 | 0.00 | 47 | 1011.0 |
| 20260504193437 | 20 | 144 | 14.5 | 30.6 | 0.00 | 0.00 | 0.00 | 47 | 1011.1 |
| 20260504192937 | 20 | 154 | 11.3 | 30.6 | 0.00 | 0.00 | 0.00 | 49 | 1011.3 |
| 20260504192438 | 21 | 118 | 11.3 | 29.0 | 0.00 | 0.00 | 0.00 | 45 | 1011.4 |
| 20260504192206 | 21 | 143 | 12.9 | 29.0 | 0.00 | 0.00 | 0.00 | 45 | 1011.4 |
| 20260504191432 | 20 | 212 | 12.9 | 24.1 | 0.00 | 0.00 | 0.00 | 47 | 1011.4 |
| 20260504191410 | 20 | 134 | 12.9 | 24.1 | 0.00 | 0.00 | 0.00 | 50 | 1011.5 |
| 20260504191026 | 20 | 126 | 11.3 | 24.1 | 0.00 | 0.00 | 0.00 | 48 | 1011.5 |
| 20260504185932 | 20 | 84 | 14.5 | 27.4 | 0.00 | 0.00 | 0.00 | 45 | 1011.5 |
| 20260504185658 | 20 | 119 | 12.9 | 27.4 | 0.00 | 0.00 | 0.00 | 48 | 1011.6 |
| 20260504184932 | 20 | 122 | 11.3 | 22.5 | 0.00 | 0.00 | 0.00 | 47 | 1011.7 |
| 20260504184436 | 20 | 119 | 11.3 | 22.5 | 0.00 | 0.00 | 0.00 | 47 | 1011.6 |
| 20260504183936 | 20 | 124 | 11.3 | 22.5 | 0.00 | 0.00 | 0.00 | 50 | 1011.6 |
| 20260504183429 | 21 | 127 | 9.7 | 22.5 | 0.00 | 0.00 | 0.00 | 46 | 1011.6 |
| 20260504182919 | 20 | 155 | 9.7 | 22.5 | 0.00 | 0.00 | 0.00 | 48 | 1011.6 |
| 20260504182414 | 21 | 167 | 9.7 | 22.5 | 0.00 | 0.00 | 0.00 | 48 | 1011.8 |
| 20260504181907 | 20 | 259 | 11.3 | 22.5 | 0.00 | 0.00 | 0.00 | 48 | 1011.8 |
| 20260504181357 | 20 | 167 | 8.0 | 20.9 | 0.00 | 0.00 | 0.00 | 51 | 1011.9 |
| 20260504180851 | 20 | 93 | 8.0 | 19.3 | 0.00 | 0.00 | 0.00 | 49 | 1011.9 |
| 20260504180607 | 20 | 248 | 8.0 | 19.3 | 0.00 | 0.00 | 0.00 | 49 | 1012.2 |
| 20260504175835 | 20 | 80 | 8.0 | 17.7 | 0.00 | 0.00 | 0.00 | 52 | 1012.2 |
| 20260504175330 | 20 | 71 | 8.0 | 17.7 | 0.00 | 0.00 | 0.00 | 47 | 1012.3 |
| 20260504174824 | 20 | 251 | 6.4 | 17.7 | 0.00 | 0.00 | 0.00 | 48 | 1012.2 |
| 20260504174314 | 20 | 142 | 8.0 | 17.7 | 0.00 | 0.00 | 0.00 | 47 | 1012.2 |
| 20260504173807 | 20 | 163 | 8.0 | 20.9 | 0.00 | 0.00 | 0.00 | 46 | 1012.3 |
| 20260504173301 | 20 | 138 | 9.7 | 20.9 | 0.00 | 0.00 | 0.00 | 48 | 1012.5 |
| 20260504172753 | 20 | 165 | 9.7 | 22.5 | 0.00 | 0.00 | 0.00 | 49 | 1012.5 |
| 20260504172246 | 20 | 165 | 9.7 | 25.7 | 0.00 | 0.00 | 0.00 | 49 | 1012.6 |
| 20260504171739 | 20 | 163 | 9.7 | 25.7 | 0.00 | 0.00 | 0.00 | 52 | 1012.5 |
| 20260504171230 | 20 | 155 | 9.7 | 25.7 | 0.00 | 0.00 | 0.00 | 52 | 1012.6 |
| 20260504170943 | 19 | 154 | 11.3 | 20.9 | 0.00 | 0.00 | 0.00 | 46 | 1012.7 |
| 20260504170216 | 19 | 141 | 11.3 | 24.1 | 0.00 | 0.00 | 0.00 | 48 | 1012.9 |
| 20260504151031 | 18 | 163 | 9.7 | 30.6 | 0.00 | 0.00 | 0.00 | 47 | 1014.0 |
| 20260504150530 | 18 | 151 | 8.0 | 16.1 | 0.00 | 0.00 | 0.00 | 53 | 1014.0 |
| 20260504141015 | 16 | 159 | 9.7 | 20.9 | 0.00 | 0.00 | 0.00 | 62 | 1014.1 |
| 20260504140515 | 16 | 171 | 9.7 | 22.5 | 0.00 | 0.00 | 0.00 | 61 | 1014.1 |
| 20260504130513 | 13 | 105 | 8.0 | 19.3 | 0.00 | 0.00 | 0.00 | 68 | 1014.6 |
| 20260504130237 | 13 | 148 | 9.7 | 24.1 | 0.00 | 0.00 | 0.00 | 70 | 1014.6 |
| 20260504110348 | 8 | 165 | 1.6 | 8.0 | 0.00 | 0.00 | 0.00 | 74 | 1014.8 |
| 20260504100221 | 6 | 173 | 3.2 | 9.7 | 0.00 | 0.00 | 0.00 | 75 | 1015.0 |
| 20260504081954 | 6 | 190 | 3.2 | 12.9 | 0.00 | 0.00 | 0.00 | 69 | 1015.1 |
| 20260504081444 | 6 | 167 | 3.2 | 12.9 | 0.00 | 0.00 | 0.00 | 69 | 1015.1 |
| 20260504080939 | 6 | 157 | 3.2 | 9.7 | 0.00 | 0.00 | 0.00 | 70 | 1015.0 |
| 20260504080432 | 5 | 184 | 3.2 | 8.0 | 0.00 | 0.00 | 0.00 | 70 | 1015.0 |
| 20260504080144 | 6 | 150 | 3.2 | 8.0 | 0.00 | 0.00 | 0.00 | 69 | 1015.0 |